Atlantic - Newfoundland: Past 24 Hour Conditions

 

St. John's Int'l Airport

03:30 PM NDT 29 August 2015
Disclaimer

This table is a summary of hourly weather conditions for the past 24 hours.
Please note that these observations might not always be representative of weather conditions over their associated marine area.

Date / Time
(NDT)
Wind(knots) Conditions Visibility(km) Pressure(kPa) Air tempC) Relative humidity(%) Dew pointC) Humidex
29 August 2015
15:30 W 16 Partly Cloudy 24 101.3 24 55 14 27
14:30 W 13 Partly Cloudy 24 101.3 23 58 14 26
13:30 W 12 Partly Cloudy 24 101.3 23 58 14 26
12:30 W 16 Partly Cloudy 24 101.3 22 66 15 26
11:30 W 9 Partly Cloudy 24 101.3 21 70 16 26
10:30 WNW 12 Partly Cloudy 24 101.3 20 72 15 24
9:30 W 11 Partly Cloudy 24 101.3 18 80 15 *
8:30 W 11 gust 16 Partly Cloudy 24 101.3 17 87 15 *
7:30 W 10 Partly Cloudy 24 101.3 15 96 15 *
6:30 W 9 Mainly Sunny 24 101.2 14 97 14 *
5:30 W 11 Mainly Clear 24 101.2 14 97 14 *
4:30 WSW 8 Mainly Clear 24 101.2 14 96 14 *
3:30 WSW 9 Clear 24 101.2 15 96 14 *
2:30 W 10 Clear 24 101.2 15 96 14 *
1:30 WSW 10 Mainly Clear 24 101.2 15 95 14 *
0:30 WSW 8 Clear 24 101.1 15 94 15 *
28 August 2015
23:30 WSW 10 Clear 24 101.1 16 93 15 *
22:30 W 13 gust 19 Clear 24 101.1 17 92 15 *
21:30 WSW 13 gust 19 Clear 24 101.1 17 92 16 *
20:30 WSW 12 gust 18 Mainly Clear 24 101.0 18 90 16 *
19:30 WSW 13 Mainly Sunny 24 101.0 19 84 17 *
18:30 WSW 13 Partly Cloudy 24 100.9 21 77 17 27
17:30 WSW 13 Partly Cloudy 24 100.9 22 76 18 28
16:30 SW 9 gust 16 Partly Cloudy 24 100.9 22 79 18 28
15:30 SSE 11 Light Drizzle 24 101.0 18 91 17 *

Zoom-in to make a selection

Map of Atlantic - Newfoundland marine weather areas Southwestern Grand Banks - 44138 Banquereau - 44139 Tail of the Bank - 44140 Nickerson Bank - 44251 Northeast Burgeo Bank - 44255 Blanc-Sablon Airport Cap Whittle Chevery Natashquan Airport Heath Point Miscou Island Grand Étang Ingonish Beach North Mountain St.Paul Island J.A. Douglas McCurdy Sydney Airport Charlottetown Airport East Point North Cape Argentia Bonavista Burgeo Cape Race Corner Brook Daniel's Harbour Englee Ferolle Point La Scie Port aux Basques Rocky Harbour Sagona Island St. Anthony Airport St. John's Int'l Airport St. Lawrence Stephenville Airport Twillingate Winterland Wreckhouse Cartwright Airport Mary's Harbour Grates Cove Pool's Island Marticot Island Long Pond Eskasoni (First Nations) Îles de la Madeleine Airport
Legend:
buoy Buoy
land station Land Station

Atlantic - Newfoundland Area

Another Region

What we are doing

Date modified: